QPF
0.00 0.00 0.00 0.00 0.00 0.00 0.00 0.00 0.00 0.00 0.00 0.00 0.00 0.00 0.00 0.00 0.00 0.00 0.00 0.00 0.00 0.00 0.00 0.00 0.00 0.00 0.00 0.00 0.00 0.00 0.00 0.00 0.00 0.00 0.00 0.00 0.00 0.00 0.00 0.00 0.00 0.00 0.00
0.00 0.00 0.00 0.00 0.00 0.00 0.00 0.00 0.00 0.00 0.00 0.00 0.00 0.00 0.00 0.00 0.00 0.00 0.00 0.00 0.00 0.00 0.00 0.00 0.00 0.00 0.00 0.00 0.00 0.00 0.00 0.00 0.00 0.00 0.00 0.00 0.00 0.00 0.00 0.00 0.00 0.00 0.00
0.00 0.00 0.00 0.00 0.00 0.00 0.00 0.00 0.00 0.00 0.00 0.00 0.00 0.00 0.00 0.00 0.00 0.00 0.00 0.00 0.00 0.00 0.00 0.00 0.00 0.00 0.00 0.00 0.00 0.00 0.00 0.00 0.00 0.00 0.00 0.00 0.00 0.00 0.00 0.00 0.00 0.00 0.00
0.00 0.00 0.00 0.00 0.00 0.00 0.00 0.00 0.00 0.00 0.00 0.00 0.01 0.01 0.01 0.00 0.00 0.00 0.00 0.00 0.00 0.00 0.00 0.00 0.00 0.00 0.00 0.00 0.00 0.00 0.00 0.00 0.00 0.00 0.00 0.00 0.00 0.00 0.00 0.00 0.00 0.00 0.00
0.00 0.00 0.00 0.00 0.00 0.00 0.00 0.00 0.00 0.00 0.00 0.00 0.01 0.01 0.01 0.01 0.00 0.00 0.00 0.00 0.00 0.00 0.00 0.00 0.00 0.00 0.00 0.00 0.00 0.00 0.00 0.00 0.00 0.00 0.00 0.00 0.00 0.00 0.00 0.00 0.00 0.00 0.00
0.00 0.00 0.00 0.00 0.00 0.00 0.00 0.00 0.00 0.00 0.00 0.00 0.00 0.00 0.00 0.00 0.00 0.00 0.00 0.00 0.00 0.00 0.00 0.00 0.00 0.00 0.00 0.00 0.00 0.00 0.00 0.00 0.00 0.00 0.00 0.00 0.00 0.00 0.00 0.00 0.00 0.00 0.00
0.00 0.00 0.00 0.00 0.00 0.00 0.00 0.00 0.00 0.00 0.00 0.00 0.00 0.00 0.00 0.00 0.00 0.01 0.00 0.00 0.00 0.00 0.00 0.00 0.00 0.00 0.00 0.00 0.00 0.00 0.00 0.00 0.00 0.00 0.00 0.00 0.00 0.00 0.00 0.00 0.00 0.00 0.00
0.00 0.00 0.00 0.00 0.00 0.00 0.00 0.00 0.00 0.00 0.00 0.00 0.00 0.00 0.00 0.00 0.00 0.00 0.00 0.00 0.00 0.00 0.00 0.00 0.00 0.00 0.00 0.00 0.00 0.00 0.00 0.00 0.00 0.00 0.00 0.00 0.00 0.00 0.00 0.00 0.00 0.00 0.00
0.00 0.00 0.00 0.00 0.00 0.00 0.00 0.00 0.00 0.00 0.00 0.00 0.00 0.00 0.00 0.00 0.01 0.00 0.00 0.00 0.00 0.00 0.00 0.00 0.00 0.00 0.00 0.00 0.00 0.00 0.00 0.00 0.00 0.00 0.00 0.00 0.00 0.00 0.00 0.00 0.00 0.00 0.00
0.00 0.00 0.00 0.00 0.00 0.00 0.00 0.00 0.00 0.00 0.00 0.00 0.00 0.00 0.00 0.00 0.01 0.00 0.00 0.00 0.00 0.00 0.00 0.00 0.00 0.00 0.00 0.00 0.00 0.00 0.00 0.00 0.00 0.00 0.00 0.00 0.00 0.00 0.00 0.00 0.00 0.00 0.00
0.00 0.00 0.00 0.00 0.00 0.00 0.00 0.00 0.00 0.00 0.00 0.00 0.00 0.00 0.00 0.01 0.01 0.01 0.00 0.00 0.00 0.00 0.00 0.00 0.00 0.00 0.00 0.00 0.00 0.00 0.00 0.00 0.00 0.00 0.00 0.00 0.00 0.00 0.00 0.00 0.00 0.00 0.00
0.00 0.00 0.00 0.00 0.00 0.00 0.00 0.00 0.00 0.00 0.00 0.00 0.00 0.00 0.00 0.00 0.00 0.01 0.01 0.00 0.00 0.00 0.00 0.00 0.00 0.00 0.00 0.00 0.00 0.00 0.00 0.00 0.00 0.00 0.00 0.00 0.00 0.00 0.00 0.00 0.00 0.00 0.00
0.00 0.00 0.00 0.00 0.00 0.00 0.00 0.00 0.00 0.00 0.00 0.00 0.00 0.00 0.00 0.00 0.00 0.01 0.01 0.00 0.00 0.00 0.00 0.00 0.00 0.00 0.00 0.00 0.00 0.00 0.00 0.00 0.00 0.00 0.00 0.00 0.00 0.00 0.00 0.00 0.00 0.00 0.00
0.00 0.00 0.00 0.00 0.00 0.00 0.00 0.00 0.00 0.00 0.00 0.00 0.00 0.00 0.00 0.00 0.00 0.00 0.00 0.00 0.00 0.00 0.00 0.00 0.00 0.00 0.00 0.00 0.00 0.00 0.00 0.00 0.00 0.00 0.00 0.00 0.00 0.00 0.00 0.00 0.00 0.00 0.00
0.00 0.00 0.00 0.00 0.00 0.01 0.00 0.00 0.00 0.00 0.00 0.00 0.00 0.00 0.00 0.00 0.00 0.00 0.00 0.00 0.00 0.00 0.00 0.00 0.00 0.00 0.00 0.00 0.00 0.00 0.00 0.00 0.00 0.00 0.00 0.00 0.00 0.00 0.00 0.00 0.00 0.00 0.00
0.00 0.00 0.00 0.00 0.00 0.00 0.00 0.00 0.00 0.00 0.00 0.00 0.00 0.00 0.00 0.00 0.00 0.00 0.00 0.00 0.00 0.00 0.00 0.00 0.00 0.00 0.00 0.00 0.00 0.00 0.00 0.00 0.00 0.00 0.00 0.00 0.00 0.00 0.00 0.00 0.00 0.00 0.00
0.00 0.00 0.00 0.00 0.00 0.00 0.00 0.00 0.00 0.00 0.00 0.00 0.00 0.00 0.00 0.00 0.00 0.00 0.00 0.00 0.00 0.00 0.00 0.00 0.00 0.00 0.00 0.00 0.00 0.00 0.00 0.00 0.00 0.00 0.00 0.00 0.00 0.00 0.00 0.00 0.00 0.00 0.00
0.00 0.00 0.00 0.00 0.00 0.00 0.00 0.00 0.00 0.00 0.00 0.00 0.00 0.00 0.00 0.00 0.00 0.00 0.00 0.00 0.00 0.00 0.00 0.00 0.00 0.00 0.00 0.00 0.00 0.00 0.00 0.00 0.00 0.00 0.00 0.00 0.00 0.00 0.00 0.00 0.00 0.00 0.00
0.00 0.00 0.00 0.00 0.00 0.00 0.00 0.00 0.00 0.00 0.00 0.00 0.00 0.00 0.00 0.00 0.00 0.00 0.00 0.00 0.00 0.00 0.00 0.00 0.00 0.00 0.00 0.00 0.00 0.00 0.00 0.00 0.00 0.00 0.00 0.00 0.00 0.00 0.00 0.00 0.00 0.00 0.00
0.00 0.00 0.00 0.00 0.00 0.00 0.00 0.00 0.00 0.00 0.00 0.00 0.01 0.01 0.01 0.00 0.00 0.00 0.00 0.00 0.00 0.00 0.00 0.00 0.00 0.00 0.00 0.00 0.00 0.00 0.00 0.00 0.00 0.00 0.00 0.00 0.00 0.00 0.00 0.00 0.00 0.00 0.00
0.00 0.00 0.00 0.00 0.00 0.00 0.00 0.00 0.00 0.00 0.00 0.00 0.01 0.01 0.00 0.00 0.00 0.00 0.00 0.00 0.00 0.00 0.00 0.00 0.00 0.00 0.00 0.00 0.00 0.00 0.00 0.00 0.00 0.00 0.00 0.00 0.00 0.00 0.00 0.00 0.00 0.00 0.00
0.00 0.00 0.00 0.00 0.00 0.00 0.00 0.00 0.00 0.00 0.00 0.00 0.00 0.00 0.00 0.00 0.00 0.00 0.00 0.00 0.00 0.00 0.00 0.00 0.00 0.00 0.00 0.00 0.00 0.00 0.00 0.00 0.00 0.00 0.00 0.00 0.00 0.00 0.00 0.00 0.00 0.00 0.00
0.00 0.00 0.00 0.00 0.00 0.00 0.00 0.00 0.00 0.00 0.00 0.00 0.00 0.00 0.00 0.00 0.00 0.00 0.00 0.00 0.00 0.00 0.00 0.00 0.00 0.00 0.00 0.00 0.00 0.00 0.00 0.00 0.00 0.00 0.00 0.00 0.00 0.00 0.00 0.00 0.00 0.00 0.00
0.00 0.00 0.00 0.00 0.00 0.00 0.00 0.00 0.00 0.00 0.00 0.00 0.00 0.00 0.00 0.00 0.00 0.00 0.00 0.00 0.00 0.00 0.00 0.00 0.00 0.00 0.00 0.00 0.00 0.00 0.00 0.00 0.00 0.00 0.00 0.00 0.00 0.00 0.00 0.00 0.00 0.00 0.00
0.00 0.00 0.00 0.00 0.00 0.00 0.00 0.00 0.00 0.00 0.00 0.00 0.00 0.00 0.00 0.00 0.00 0.00 0.00 0.00 0.00 0.00 0.00 0.00 0.00 0.00 0.00 0.00 0.00 0.00 0.00 0.00 0.00 0.00 0.00 0.00 0.00 0.00 0.00 0.00 0.00 0.00 0.00
0.00 0.00 0.00 0.00 0.00 0.00 0.00 0.00 0.00 0.00 0.00 0.00 0.00 0.00 0.00 0.00 0.00 0.00 0.00 0.00 0.00 0.00 0.00 0.00 0.00 0.00 0.00 0.00 0.00 0.00 0.00 0.00 0.00 0.00 0.00 0.00 0.00 0.00 0.00 0.00 0.00 0.00 0.00
MSLP
1010.00 1009.70 1009.47 1009.23 1009.05 1008.86 1008.64 1008.56 1008.48 1008.28 1008.14 1007.99 1008.00 1008.20 1008.19 1008.03 1007.98 1007.78 1007.74 1007.81 1007.51 1007.55 1007.75 1008.10 1008.28 1008.95 1009.66 1010.38 1011.19 1011.32 1011.79 1012.64 1013.59 1015.89 1017.35 1017.22 1019.42 1019.73 1020.82 1022.29 1022.77 1023.46 1024.44
1009.68 1009.41 1009.07 1008.81 1008.67 1008.34 1008.20 1007.81 1007.74 1007.56 1007.59 1007.47 1007.24 1007.64 1007.99 1007.97 1007.78 1007.73 1007.66 1007.50 1007.41 1007.17 1007.16 1007.68 1008.07 1008.61 1009.17 1009.54 1010.13 1010.82 1012.03 1012.46 1014.04 1015.20 1016.78 1017.16 1018.82 1019.45 1019.95 1021.35 1022.22 1022.87 1023.45
1009.57 1009.30 1008.86 1008.51 1008.25 1007.95 1007.69 1007.61 1007.37 1006.96 1006.87 1006.80 1006.93 1007.11 1007.45 1007.69 1007.63 1007.81 1007.78 1007.44 1007.30 1007.12 1007.05 1007.03 1007.59 1008.17 1008.86 1009.14 1009.84 1011.10 1012.01 1012.91 1014.08 1015.16 1016.56 1017.53 1018.43 1019.32 1020.01 1020.82 1021.76 1022.59 1023.23
1009.66 1009.27 1008.77 1008.35 1008.04 1007.78 1007.77 1007.31 1007.01 1006.78 1006.63 1006.66 1006.85 1006.74 1007.03 1007.19 1007.44 1007.54 1007.48 1007.42 1007.27 1007.23 1007.16 1007.02 1007.43 1007.64 1008.23 1008.68 1009.59 1010.40 1011.41 1012.59 1013.79 1015.00 1016.43 1017.28 1018.39 1019.07 1019.55 1020.63 1021.96 1022.71 1023.54
1009.45 1008.93 1008.60 1008.18 1007.85 1007.39 1007.10 1006.99 1006.72 1006.43 1006.32 1006.29 1006.45 1006.51 1006.70 1006.82 1006.96 1007.22 1006.98 1007.37 1007.31 1007.14 1007.48 1007.49 1007.56 1007.83 1008.15 1008.73 1009.29 1010.40 1011.51 1012.53 1013.73 1015.07 1016.35 1017.62 1018.31 1018.75 1019.41 1020.63 1021.87 1022.73 1023.64
1009.10 1008.62 1008.27 1007.92 1007.44 1007.03 1006.60 1006.44 1006.18 1005.85 1005.66 1005.67 1005.94 1006.18 1006.16 1006.46 1006.49 1006.98 1007.06 1007.10 1007.19 1007.25 1007.77 1007.95 1008.10 1008.59 1008.96 1009.61 1010.11 1010.82 1011.15 1012.11 1013.84 1014.95 1016.07 1016.76 1017.60 1018.40 1019.43 1020.23 1021.18 1022.10 1023.24
1008.44 1007.86 1007.44 1007.15 1006.98 1006.65 1006.27 1005.92 1005.76 1005.56 1005.40 1005.33 1005.48 1005.66 1005.73 1005.98 1006.27 1006.59 1006.87 1006.70 1007.23 1007.47 1007.86 1008.19 1008.60 1009.19 1009.65 1010.33 1010.59 1011.38 1012.18 1012.99 1013.30 1014.32 1015.57 1016.61 1017.27 1018.03 1018.77 1019.95 1020.30 1021.01 1022.08
1007.68 1007.16 1006.73 1006.36 1006.10 1006.00 1006.00 1005.86 1005.77 1005.62 1005.43 1005.21 1005.20 1005.39 1005.50 1005.62 1006.07 1006.41 1006.76 1006.91 1007.13 1007.67 1007.93 1008.13 1008.68 1009.57 1009.95 1010.82 1011.54 1012.46 1013.20 1013.78 1013.97 1014.56 1015.28 1015.96 1016.89 1017.78 1018.32 1018.89 1019.40 1020.64 1021.68
1007.00 1006.59 1006.07 1005.79 1005.71 1005.68 1005.58 1005.71 1005.98 1005.90 1005.53 1005.31 1005.25 1005.28 1005.36 1005.49 1005.96 1006.28 1006.70 1007.12 1007.02 1007.66 1008.13 1008.55 1008.87 1009.86 1010.58 1011.43 1012.01 1012.97 1013.35 1013.93 1014.33 1014.86 1015.59 1016.17 1016.80 1017.39 1018.17 1019.20 1019.87 1020.48 1021.64
1006.55 1006.35 1006.29 1006.05 1005.92 1005.67 1005.77 1006.05 1006.34 1006.41 1006.04 1005.76 1005.41 1005.27 1005.27 1005.50 1005.83 1006.18 1006.63 1006.98 1007.59 1008.00 1008.56 1008.99 1009.29 1010.14 1011.10 1011.65 1012.02 1012.65 1013.36 1014.33 1014.65 1015.85 1017.08 1017.66 1018.03 1018.73 1019.24 1019.41 1019.63 1019.90 1021.15
1006.18 1006.21 1006.24 1006.23 1006.16 1006.02 1005.99 1006.22 1006.39 1006.32 1006.06 1005.74 1005.40 1005.07 1005.21 1005.44 1005.75 1006.11 1006.35 1006.77 1007.30 1008.18 1008.55 1009.45 1010.13 1010.45 1011.36 1012.15 1012.56 1013.09 1013.62 1014.75 1015.60 1016.35 1017.38 1018.47 1019.17 1019.78 1020.20 1020.17 1020.10 1020.32 1021.14
1005.96 1006.22 1006.40 1006.32 1006.18 1005.95 1005.96 1006.00 1006.11 1006.05 1005.76 1005.47 1005.41 1005.18 1005.24 1005.51 1005.66 1006.08 1006.37 1006.42 1007.21 1007.79 1008.67 1009.32 1010.16 1010.92 1011.91 1012.57 1013.11 1014.02 1014.63 1015.03 1015.89 1016.74 1017.67 1018.61 1019.28 1019.84 1020.58 1021.03 1021.65 1022.05 1022.57
1006.01 1006.26 1006.20 1006.06 1005.95 1005.88 1005.80 1005.71 1005.73 1005.67 1005.41 1005.18 1005.17 1005.01 1005.07 1005.45 1005.68 1006.03 1006.53 1006.78 1007.50 1008.11 1008.82 1009.34 1010.43 1011.41 1012.36 1013.27 1014.08 1014.74 1015.13 1015.46 1016.23 1017.27 1017.74 1018.66 1019.27 1020.22 1021.20 1021.91 1022.66 1023.39 1023.66
1006.10 1006.04 1005.90 1005.75 1005.66 1005.57 1005.51 1005.46 1005.30 1005.21 1005.00 1004.80 1004.78 1004.74 1004.77 1005.15 1005.53 1006.08 1006.79 1007.25 1007.33 1008.54 1008.93 1010.16 1010.98 1011.82 1012.52 1013.65 1014.82 1015.16 1015.45 1016.00 1016.34 1016.87 1017.94 1018.80 1019.74 1020.71 1021.34 1022.14 1022.68 1022.91 1023.14
1005.19 1005.35 1005.40 1005.33 1005.25 1005.22 1005.18 1005.13 1004.97 1004.74 1004.62 1004.42 1004.28 1004.32 1004.49 1004.79 1005.11 1005.54 1006.22 1006.92 1007.50 1008.05 1009.15 1010.24 1011.15 1012.19 1013.15 1013.91 1014.71 1015.21 1015.66 1016.34 1016.71 1017.42 1018.27 1019.11 1019.68 1020.33 1021.12 1021.77 1021.87 1022.45 1022.55
1004.92 1004.85 1004.94 1004.97 1004.91 1004.88 1004.85 1004.77 1004.78 1004.70 1004.46 1004.24 1004.09 1004.02 1004.12 1004.30 1004.79 1005.50 1006.18 1006.81 1007.37 1007.79 1009.19 1009.89 1011.08 1012.06 1012.92 1013.78 1014.64 1015.40 1015.85 1016.64 1017.11 1017.75 1018.42 1018.85 1019.30 1019.95 1021.06 1021.71 1021.67 1022.01 1022.31
1004.77 1004.68 1004.76 1004.81 1004.75 1004.72 1004.66 1004.57 1004.36 1004.39 1004.30 1004.10 1003.93 1003.90 1004.01 1004.28 1004.81 1005.39 1006.09 1006.86 1007.74 1008.52 1009.20 1010.21 1011.26 1011.98 1012.95 1013.75 1014.55 1015.21 1015.77 1016.61 1017.27 1017.61 1018.27 1018.84 1019.46 1020.07 1020.75 1021.01 1021.44 1021.86 1021.84
1004.97 1004.92 1004.83 1004.71 1004.69 1004.61 1004.53 1004.45 1004.40 1004.20 1004.05 1004.05 1004.03 1003.94 1004.09 1004.38 1004.93 1005.70 1006.42 1007.29 1008.32 1008.73 1009.31 1010.21 1011.25 1012.10 1012.92 1013.71 1014.43 1015.21 1015.87 1016.74 1017.12 1017.75 1018.45 1019.05 1019.67 1020.04 1020.59 1020.90 1021.12 1021.44 1021.95
1005.17 1005.02 1004.96 1004.85 1004.77 1004.71 1004.65 1004.59 1004.46 1004.35 1004.28 1004.23 1004.30 1004.42 1004.54 1004.99 1005.62 1006.32 1007.04 1007.44 1007.99 1008.80 1009.74 1010.64 1011.43 1012.39 1013.16 1013.74 1014.47 1015.26 1016.20 1016.86 1017.12 1017.74 1018.46 1019.25 1019.66 1019.82 1020.37 1020.75 1021.09 1021.41 1021.64
1005.29 1005.19 1005.06 1004.82 1004.76 1004.66 1004.70 1004.67 1004.67 1004.59 1004.57 1004.59 1004.66 1004.95 1005.42 1005.95 1006.51 1007.17 1007.62 1008.10 1008.74 1009.39 1010.13 1010.91 1011.86 1012.71 1013.37 1013.99 1014.83 1015.68 1016.35 1017.07 1017.32 1017.58 1018.40 1018.98 1019.54 1020.10 1020.52 1020.47 1020.70 1021.04 1021.34
1005.26 1005.08 1005.03 1004.84 1004.62 1004.60 1004.67 1004.74 1004.87 1004.80 1004.85 1005.00 1005.29 1005.77 1006.18 1006.54 1007.08 1007.61 1008.10 1008.70 1009.27 1009.90 1010.56 1011.30 1012.09 1012.78 1013.50 1014.21 1015.04 1015.74 1016.09 1016.65 1017.07 1017.48 1017.94 1018.83 1019.74 1020.08 1020.33 1020.29 1020.64 1021.15 1021.23
1005.10 1004.83 1004.81 1004.72 1004.65 1004.67 1004.64 1004.82 1004.98 1005.08 1005.19 1005.37 1005.86 1006.43 1006.83 1007.17 1007.64 1008.11 1008.61 1009.15 1009.77 1010.33 1010.96 1011.59 1012.28 1013.00 1013.64 1014.22 1014.74 1015.28 1015.75 1016.19 1016.75 1017.40 1018.11 1018.85 1019.60 1020.22 1020.58 1020.75 1020.83 1020.89 1021.13
1004.78 1004.60 1004.51 1004.49 1004.53 1004.68 1004.78 1004.80 1005.02 1005.21 1005.44 1005.77 1006.27 1006.73 1007.14 1007.51 1007.93 1008.38 1008.91 1009.55 1010.11 1010.64 1011.18 1011.72 1012.29 1012.94 1013.59 1014.19 1014.71 1015.14 1015.59 1016.17 1016.92 1017.69 1018.46 1019.40 1019.94 1020.10 1020.26 1020.37 1020.51 1020.95 1021.28
1004.51 1004.33 1004.27 1004.24 1004.43 1004.47 1004.58 1004.79 1004.99 1005.19 1005.50 1005.98 1006.40 1006.80 1007.25 1007.72 1008.19 1008.73 1009.32 1009.87 1010.43 1011.01 1011.52 1011.98 1012.55 1013.15 1013.89 1014.50 1015.07 1015.62 1016.08 1016.84 1017.61 1018.36 1018.79 1019.13 1019.48 1019.94 1020.14 1020.30 1020.73 1020.94 1021.30
1004.34 1004.16 1004.05 1004.03 1004.09 1004.22 1004.39 1004.61 1004.90 1005.17 1005.54 1005.98 1006.42 1006.88 1007.38 1007.86 1008.41 1009.07 1009.63 1010.22 1010.75 1011.32 1011.86 1012.38 1013.05 1013.79 1014.40 1014.91 1015.44 1016.03 1016.91 1017.56 1018.03 1018.59 1018.95 1019.19 1019.45 1019.86 1020.26 1020.55 1020.79 1020.97 1021.25
1004.04 1003.85 1003.74 1003.75 1003.77 1003.89 1004.02 1004.27 1004.62 1005.01 1005.37 1005.88 1006.32 1006.81 1007.30 1007.83 1008.45 1009.15 1009.85 1010.42 1010.99 1011.61 1012.22 1012.76 1013.35 1013.92 1014.67 1015.19 1015.81 1016.85 1017.57 1018.05 1018.33 1018.52 1018.75 1019.07 1019.48 1019.90 1020.30 1020.63 1021.06 1021.34 1021.45
Thickness
5508 5506 5503 5499 5498 5498 5499 5499 5499 5499 5498 5500 5500 5498 5499 5501 5501 5507 5511 5513 5516 5517 5521 5524 5532 5528 5529 5528 5524 5525 5525 5521 5516 5498 5486 5492 5476 5480 5475 5464 5466 5463 5458
5484 5483 5484 5483 5481 5482 5483 5485 5487 5488 5487 5488 5489 5486 5483 5482 5485 5487 5491 5495 5498 5503 5505 5505 5509 5510 5513 5515 5515 5512 5504 5503 5489 5481 5472 5475 5466 5463 5466 5455 5453 5450 5448
5463 5464 5466 5466 5466 5467 5469 5468 5473 5476 5477 5477 5476 5474 5472 5470 5471 5470 5472 5477 5480 5483 5485 5490 5492 5493 5493 5498 5498 5490 5484 5478 5468 5465 5456 5457 5452 5448 5449 5442 5439 5433 5433
5442 5445 5448 5450 5452 5454 5453 5456 5458 5460 5461 5463 5462 5461 5459 5459 5459 5458 5457 5459 5461 5462 5463 5469 5470 5475 5479 5481 5478 5477 5469 5461 5455 5450 5443 5440 5437 5435 5433 5428 5420 5417 5414
5428 5431 5433 5435 5438 5442 5443 5444 5447 5450 5452 5452 5450 5452 5449 5450 5450 5446 5451 5445 5446 5447 5441 5442 5446 5449 5458 5459 5461 5456 5449 5443 5438 5430 5423 5417 5417 5419 5419 5412 5403 5399 5396
5413 5417 5420 5422 5426 5429 5433 5434 5438 5442 5446 5447 5444 5441 5443 5442 5443 5439 5440 5440 5438 5437 5431 5428 5429 5427 5430 5433 5434 5434 5438 5435 5423 5417 5414 5416 5411 5407 5401 5399 5394 5391 5386
5404 5409 5412 5413 5413 5416 5420 5424 5427 5430 5433 5436 5436 5436 5436 5435 5433 5433 5431 5435 5432 5429 5427 5424 5422 5417 5413 5413 5416 5417 5415 5413 5416 5411 5405 5402 5402 5399 5398 5389 5389 5388 5381
5395 5399 5403 5405 5406 5409 5408 5410 5411 5415 5419 5424 5426 5426 5427 5427 5424 5424 5422 5424 5425 5422 5421 5419 5415 5408 5407 5403 5401 5398 5396 5395 5399 5400 5400 5399 5393 5388 5388 5386 5384 5377 5373
5386 5389 5392 5394 5395 5397 5398 5397 5395 5396 5403 5408 5411 5412 5415 5415 5413 5414 5413 5414 5416 5413 5412 5412 5411 5405 5398 5394 5392 5387 5387 5386 5386 5386 5385 5384 5382 5380 5377 5372 5368 5366 5359
5381 5378 5375 5377 5379 5382 5380 5378 5375 5374 5380 5386 5392 5398 5401 5402 5402 5403 5404 5405 5403 5402 5400 5400 5400 5396 5389 5387 5386 5383 5380 5375 5376 5370 5363 5361 5361 5359 5358 5358 5359 5361 5352
5374 5370 5368 5365 5362 5361 5359 5357 5358 5362 5367 5372 5378 5385 5387 5388 5389 5391 5395 5396 5395 5392 5393 5389 5385 5384 5380 5376 5376 5373 5370 5363 5359 5357 5351 5346 5343 5341 5340 5341 5344 5344 5339
5363 5358 5354 5352 5352 5353 5351 5348 5347 5351 5356 5362 5365 5371 5373 5373 5376 5378 5383 5388 5386 5388 5384 5381 5376 5371 5367 5364 5362 5355 5353 5353 5348 5345 5340 5336 5333 5330 5327 5323 5318 5315 5312
5351 5345 5345 5346 5345 5342 5341 5341 5341 5342 5347 5352 5354 5360 5363 5361 5363 5366 5370 5375 5374 5376 5373 5370 5365 5360 5355 5350 5344 5340 5339 5339 5336 5330 5329 5324 5323 5315 5307 5303 5298 5292 5290
5339 5337 5338 5338 5337 5334 5332 5330 5331 5333 5337 5341 5345 5348 5352 5353 5354 5355 5356 5361 5366 5361 5363 5354 5352 5349 5346 5338 5331 5330 5329 5327 5326 5324 5317 5311 5305 5298 5295 5289 5284 5283 5282
5342 5338 5337 5336 5333 5330 5325 5322 5321 5325 5330 5334 5337 5341 5343 5346 5348 5348 5350 5351 5354 5355 5350 5346 5343 5338 5331 5327 5323 5321 5319 5315 5313 5308 5302 5296 5294 5290 5284 5279 5279 5274 5275
5340 5339 5338 5335 5332 5329 5326 5324 5320 5321 5323 5326 5330 5335 5338 5341 5341 5341 5342 5343 5344 5345 5340 5339 5333 5328 5323 5318 5313 5309 5306 5302 5299 5295 5291 5289 5286 5282 5273 5268 5270 5267 5264
5338 5338 5335 5332 5330 5327 5325 5323 5324 5322 5321 5323 5326 5328 5331 5332 5333 5334 5334 5333 5331 5331 5332 5326 5322 5319 5314 5311 5306 5302 5299 5293 5289 5287 5282 5278 5274 5271 5267 5267 5262 5257 5257
5332 5330 5330 5329 5326 5324 5323 5322 5319 5320 5321 5320 5319 5322 5323 5325 5325 5324 5323 5323 5322 5323 5323 5319 5314 5311 5307 5303 5300 5295 5291 5285 5283 5278 5272 5269 5266 5264 5260 5258 5256 5251 5243
5328 5327 5325 5324 5322 5320 5318 5316 5315 5314 5313 5313 5313 5313 5314 5314 5313 5312 5311 5315 5317 5315 5312 5308 5305 5300 5297 5296 5292 5287 5279 5274 5273 5269 5265 5260 5258 5258 5254 5248 5243 5237 5234
5325 5323 5322 5323 5320 5319 5316 5314 5311 5309 5306 5304 5304 5303 5301 5301 5301 5300 5302 5304 5303 5302 5301 5299 5295 5291 5288 5285 5280 5275 5270 5265 5265 5264 5259 5255 5251 5246 5241 5239 5236 5230 5224
5324 5323 5321 5322 5321 5319 5315 5313 5310 5309 5306 5301 5296 5294 5292 5293 5290 5290 5291 5292 5292 5292 5291 5289 5286 5283 5280 5276 5271 5267 5267 5264 5261 5260 5257 5248 5240 5237 5234 5229 5222 5214 5209
5321 5322 5321 5320 5319 5317 5315 5312 5310 5308 5306 5304 5298 5292 5290 5289 5287 5286 5286 5285 5284 5284 5283 5282 5279 5276 5273 5272 5270 5268 5265 5263 5258 5252 5246 5239 5231 5223 5217 5211 5207 5203 5196
5318 5318 5318 5317 5316 5313 5311 5311 5308 5307 5305 5302 5298 5294 5292 5290 5289 5287 5285 5283 5282 5281 5279 5278 5277 5274 5270 5267 5264 5261 5258 5254 5247 5240 5233 5223 5217 5213 5209 5204 5198 5188 5179
5312 5313 5312 5312 5310 5310 5309 5307 5306 5305 5304 5301 5298 5296 5294 5291 5288 5285 5282 5279 5277 5275 5274 5272 5270 5267 5262 5259 5255 5250 5246 5239 5232 5225 5220 5216 5211 5204 5199 5192 5182 5174 5164
5306 5307 5307 5306 5306 5305 5304 5304 5302 5301 5300 5298 5296 5294 5291 5288 5285 5281 5277 5274 5272 5269 5267 5264 5260 5256 5253 5249 5244 5239 5233 5227 5222 5216 5212 5207 5201 5193 5184 5176 5166 5157 5147
5301 5301 5301 5301 5301 5301 5300 5300 5298 5296 5296 5294 5292 5290 5288 5284 5281 5276 5272 5269 5266 5262 5259 5256 5253 5249 5244 5240 5235 5228 5223 5218 5214 5209 5203 5195 5187 5179 5169 5160 5148 5138 5129